Regional Weather Roundup
Issued by NWS

Home | Current Version | Previous Version | Text Only | Print | Product List | Glossary Off
Versions: 1 2 3 4 5 6 7 8 9 10 11 12 13 14 15 16 17 18 19 20 21 22 23 24 25 26 27 28 29 30 31 32 33 34 35 36 37 38 39 40 41 42 43 44 45 46 47 48 49 50

000
ASUS43 KMKX 261300
RWRWI

WISCONSIN REGIONAL WEATHER ROUNDUP
NATIONAL WEATHER SERVICE MILWAUKEE/SULLIVAN WI
800 AM CDT TUE MAY 26 2015

NOTE: "FAIR" INDICATES FEW OR NO CLOUDS BELOW 12,000 FEET WITH NO
SIGNIFICANT WEATHER AND/OR OBSTRUCTIONS TO VISIBILITY.

WIZ001-002-006>008-014>016-023>028-261400-
NORTHWEST WISCONSIN

CITY           SKY/WX    TMP DP  RH WIND       PRES   REMARKS
SUPERIOR ARPT  CLOUDY    52  52 100 E3        29.85F
ASHLAND        FOG       52  52 100 N5        29.86R VSB 1/2
HAYWARD        CLOUDY    56  55  97 CALM      29.85R
SIREN          FOG       52  52  98 CALM      29.84R VSB 1/4
CUMBERLAND     FOG       55  54  94 CALM      29.83S VSB 1
RICE LAKE      CLOUDY    58  57  96 CALM      29.84S FOG
CHETEK         FOG       58  58 100 CALM      29.83S VSB 1/4
LADYSMITH      FOG       61  60  97 CALM      29.86R VSB 3/4
EAU CLAIRE     NOT AVBL
MENOMONIE      CLOUDY    60  60  99 CALM      29.82S
NEW RICHMOND   CLOUDY    57  57 100 CALM      29.83R FOG
OSCEOLA        CLOUDY    55  55 100 N3        29.85R FOG
$$

WIZ003>005-009-010-017-018-261400-
NORTH CENTRAL WISCONSIN

CITY           SKY/WX    TMP DP  RH WIND       PRES   REMARKS
MANITOWISH WTR PTSUNNY   61  61 100 SW5       29.85R
ARBOR VITAE    CLOUDY    62  61  96 CALM      29.85S FOG
WOODRUFF       CLOUDY    62  61  96 CALM      29.85S FOG
RHINELANDER    CLOUDY    63  61  93 S7        29.87R
EAGLE RIVER    CLOUDY    61  60  97 SW5       29.85S
LAND O LAKES   CLOUDY    61  61 100 S3        29.86S FOG
PHILLIPS       CLOUDY    59  59 100 CALM      29.84S FOG
TOMAHAWK       CLOUDY    61  60  97 CALM      29.88R
MEDFORD        PTSUNNY   62  61  95 CALM      29.86S
MERRILL        MOSUNNY   64  64  99 S3        29.86F
$$

WIZ029-030-035-036-043>047-261400-
CENTRAL WISCONSIN

CITY           SKY/WX    TMP DP  RH WIND       PRES   REMARKS
WAUSAU         MOSUNNY   66  63  90 S3        29.84F
MOSINEE        MOSUNNY   63  63 100 S7        29.87S
MARSHFIELD     PTSUNNY   64  61  90 S5        29.84F
STEVENS POINT  PTSUNNY   64  61  90 S3        29.87R
WAUPACA        PTSUNNY   66  65  95 CALM      29.87R
WAUTOMA        NOT AVBL
WISC RAPIDS    CLOUDY    66  62  87 CALM      29.86S
CAMP DOUGLAS   NOT AVBL
$$

WIZ011>013-019>022-031-037>040-048>050-261400-
NORTHEAST WISCONSIN

CITY           SKY/WX    TMP DP  RH WIND       PRES   REMARKS
ANTIGO         CLOUDY    62  62 100 SW7       29.88R FOG
SHAWANO        MOSUNNY   68  63  83 SW3       29.87S
OCONTO         SUNNY     68  64  86 SW6       29.86R
STURGEON BAY   SUNNY     66  61  82 S7        29.90S
GREEN BAY      PTSUNNY   71  65  81 SW10      29.87R
MANITOWOC      NOT AVBL
APPLETON       MOSUNNY   68  63  83 S9        29.87R
CLINTONVILLE   PTSUNNY   66  63  88 SW3       29.86S
OSHKOSH        CLOUDY    70  65  84 S14       29.86S
$$

WIZ032>034-041-042-053>061-261400-
SOUTHWEST WISCONSIN

CITY           SKY/WX    TMP DP  RH WIND       PRES   REMARKS
LA CROSSE      CLOUDY    64  60  87 E3        29.80F
SPARTA         CLOUDY    61  60  94 CALM      29.83F
VIROQUA        CLOUDY    63  60  90 SE9       29.81F
BOSCOBEL       CLOUDY    65  61  87 NE3       29.81F
PRAIRIE DU CHI CLOUDY    64  60  86 E6        29.79F
PLATTEVILLE    CLOUDY    67  66  96 SE7       29.84S
$$

WIZ056-057-062-063-064-067-068-261400-
SOUTH CENTRAL WISCONSIN

CITY           SKY/WX    TMP DP  RH WIND       PRES   REMARKS
REEDSBURG      CLOUDY    66  61  85 CALM      29.83F
BARABOO/DELLS  CLOUDY    67  60  80 S7        29.84F
LONE ROCK      NOT AVBL
MINERAL POINT  CLOUDY    68  64  88 SE9       29.85F FOG
MADISON        CLOUDY    69  65  86 S13       29.86F
MIDDLETON      CLOUDY    69  67  92 S8        29.86F
WATERTOWN      CLOUDY    67  67 100 S5        29.89S
MONROE         CLOUDY    66  64  94 SE10      29.86F FOG
JANESVILLE     CLOUDY    70  66  88 S12       29.88F
$$

WIZ051-052-058>065-066-070>072-261400-
SOUTHEAST WISCONSIN

CITY           SKY/WX    TMP DP  RH WIND       PRES   REMARKS
MILWAUKEE      PTSUNNY   70  65  84 S15       29.91S
WAUKESHA       CLOUDY    66  64  94 S8        29.92R FOG
MILWAUKEE/TIMM NOT AVBL
RACINE         PTSUNNY   65  60  84 SE13      29.94S
BURLINGTON     CLOUDY    67  64  90 S6        29.92S
KENOSHA        CLOUDY    70  66  87 S10       29.93R
FOND DU LAC    CLOUDY    70  65  84 S13       29.88S
SHEBOYGAN      PTSUNNY   70  65  84 S7        29.89S
WEST BEND      PTSUNNY   70  64  83 S6        29.90S
JUNEAU         CLOUDY    67  65  93 SE10      29.90S
$$

LSZ147-162-261400-
LAKE SUPERIOR

STATION/POSITION TIME  TEMP    WIND        PRES    WAVE
                       AIR SEA DIR/SP/G            HT/PER
                 (UTC) (F)     (DEG/KT/KT) (MB)    (FT/S)
W MID LAKE BUOY  1150   39 36  270/  6/  6   N/A     1
DEVILS ISLAND    1200   44     250/  6/  7   N/A
PORT WING        1200   45     290/  2/  4   N/A
SAXON HARBOR     1200   48        CALM       N/A
$$

LMZ867-665-643>646-261400-
LAKE MICHIGAN

STATION/POSITION TIME  TEMP    WIND        PRES    WAVE
                       AIR SEA DIR/SP/G            HT/PER
                 (UTC) (F)     (DEG/KT/KT) (MB)    (FT/S)
CHAMBERS ISLAND  1200   65     170/  4/  9   N/A
N MID LAKE BUOY  1150   42 37  190/ 12/ 14   N/A     2/ 5
NORTHPORT PIER   1200   57     160/  5/ 10   N/A
SISTER BAY       1248   70     180/ 11/ 12   N/A
KEWAUNEE LAKESHO 1200   51     170/  9/ 10   N/A
SHEBOYGAN LAKESH 1200   52     170/ 23/ 25   N/A
PORT WASHINGTON  1200   56     180/  5/  8   N/A
ATWATER BUOY     1200   52 47  180/  6/  8   N/A
MILWAUKEE LAKESH 1200   53     140/ 11/ 12   N/A
S MID LAKE BUOY  1150   48 38  170/ 14/ 14   N/A     1/ 3
KENOSHA   LAKESH 1200   53     170/ 10/ 11   N/A
$$

TC  - TEMPERATURE IN CELSIUS
VSB - VISIBILITY IN STATUTE MILES
WCI - WIND CHILL INDEX
HX  - HEAT INDEX



USA.gov is the U.S. government's official web portal to all federal, state and local government web resources and services.